This is the latest recevied weather packets stored in our database for station/object W5LND-10. If no packets are shown the sender has not sent any weather packets the latest 10 day(s).
| Time | Temp. | Humidity | Pressure | Rain* | Wind** | Luminosity | Snow |
|---|---|---|---|---|---|---|---|
| 1777667181 | 12.22° C | 89% | 1014.6 hPa | 0 mm | - | 573 W/m² | - |
| 1777666881 | 11.67° C | 89% | 1014.8 hPa | 0 mm | - | 584 W/m² | - |
| 1777666581 | 11.67° C | 90% | 1014.7 hPa | 0 mm | - | 508 W/m² | - |
| 1777666281 | 11.11° C | 91% | 1014.8 hPa | 0 mm | - | 466 W/m² | - |
| 1777665981 | 11.11° C | 90% | 1014.8 hPa | 0 mm | - | 279 W/m² | - |
| 1777665681 | 10.56° C | 91% | 1014.9 hPa | 0 mm | - | 199 W/m² | - |
| 1777665381 | 10.56° C | 90% | 1014.9 hPa | 0 mm | - | 178 W/m² | - |
| 1777665081 | 11.11° C | 90% | 1015.1 hPa | 0 mm | - | 156 W/m² | - |
| 1777664781 | 11.11° C | 91% | 1015.1 hPa | 0.25 mm | - | 121 W/m² | - |
| 1777664481 | 11.11° C | 91% | 1015.3 hPa | 0.25 mm | - | 118 W/m² | - |
| 1777664181 | 11.11° C | 91% | 1015.1 hPa | 0.25 mm | - | 149 W/m² | - |
| 1777663881 | 11.11° C | 91% | 1015.1 hPa | 0.25 mm | - | 148 W/m² | - |
| 1777663581 | 11.11° C | 91% | 1015.1 hPa | 0.51 mm | - | 120 W/m² | - |
| 1777663281 | 11.11° C | 91% | 1015 hPa | 0.76 mm | - | 88 W/m² | - |
| 1777662981 | 11.11° C | 91% | 1014.9 hPa | 0.76 mm | - | 62 W/m² | - |
| 1777662681 | 11.67° C | 91% | 1015.1 hPa | 1.02 mm | - | 46 W/m² | - |
| 1777662381 | 11.67° C | 91% | 1015.1 hPa | 1.27 mm | - | 225 W/m² | - |
| 1777662081 | 11.11° C | 92% | 1015.3 hPa | 1.52 mm | - | 151 W/m² | - |
| 1777661781 | 11.11° C | 92% | 1015.5 hPa | 1.52 mm | - | 77 W/m² | - |
| 1777661481 | 11.11° C | 91% | 1015.7 hPa | 1.78 mm | - | 76 W/m² | - |
| 1777661181 | 11.11° C | 91% | 1015.6 hPa | 1.78 mm | - | 123 W/m² | - |
| 1777660881 | 11.11° C | 91% | 1015.7 hPa | 2.03 mm | - | 243 W/m² | - |
| 1777660581 | 11.11° C | 91% | 1015.8 hPa | 2.54 mm | - | 95 W/m² | - |
| 1777660281 | 11.11° C | 91% | 1015.8 hPa | 2.79 mm | - | 62 W/m² | - |
| 1777659981 | 11.11° C | 91% | 1016 hPa | 3.05 mm | - | 37 W/m² | - |
* Rain latest hour (hover to see other rain measurements)
** Current wind speed in m/s (hover to see current wind gust speed)